EW9853 Weather Reports


time (UTC)temp
F
wind
direction
speed
knots
gust
knots
rain 1hr
in
rain 24hr
in
rain mn
in
humidity
%
barometer
mb
20260906120026 69 42 0.0 4.3 0.00 0.00 0.00 93 1016.0
20260906114526 68 53 0.0 4.3 0.00 0.00 0.00 94 1015.7
20260906113022 68 42 0.0 4.3 0.00 0.00 0.00 94 1015.4
20260906111521 68 50 2.6 5.2 0.00 0.00 0.00 94 1015.3
20260906110020 68 43 1.7 4.3 0.00 0.00 0.00 94 1015.2
20260906104522 68 44 0.9 3.5 0.00 0.00 0.00 93 1014.9
20260906103015 68 72 0.0 4.3 0.00 0.00 0.00 93 1014.7
20260906101526 68 74 0.9 4.3 0.00 0.00 0.00 92 1014.8
20260906100012 69 75 0.9 5.2 0.00 0.00 0.00 92 1014.8
20260906094511 69 40 2.6 6.1 0.00 0.00 0.00 92 1014.5
20260906093011 69 26 1.7 4.3 0.00 0.00 0.00 92 1014.6
20260906091508 69 347 0.9 5.2 0.00 0.00 0.00 92 1014.5
20260906090008 69 60 0.9 6.1 0.00 0.00 0.00 91 1014.4
20260906084505 70 32 0.9 5.2 0.00 0.00 0.00 91 1014.4
20260906083004 70 64 1.7 6.1 0.00 0.00 0.00 90 1014.3
20260906081502 71 50 0.0 5.2 0.00 0.00 0.00 90 1014.4
20260906080001 71 103 0.9 4.3 0.00 0.00 0.00 89 1014.6
20260906074602 71 51 0.0 3.5 0.00 0.00 0.00 89 1014.6
20260906073059 71 61 1.7 4.3 0.00 0.00 0.00 88 1014.7
20260906071558 71 44 1.7 5.2 0.00 0.00 0.00 88 1014.6
20260906070057 72 56 0.9 4.3 0.00 0.00 0.00 87 1014.8
20260906064555 72 47 1.7 4.3 0.00 0.00 0.00 87 1014.7
20260906063054 72 58 0.0 4.3 0.00 0.00 0.00 87 1014.7
20260906061557 72 65 0.0 5.2 0.00 0.00 0.00 86 1014.7
20260906060051 72 11 1.7 7.0 0.00 0.00 0.00 86 1014.6
20260906054557 72 48 1.7 7.8 0.00 0.00 0.00 86 1014.5
20260906053053 72 51 2.6 6.1 0.00 0.00 0.00 86 1014.4
20260906051546 72 52 1.7 7.0 0.00 0.00 0.00 86 1014.4
20260906050105 72 47 1.7 6.1 0.00 0.00 0.00 85 1014.3
20260906044542 72 70 1.7 6.1 0.00 0.00 0.00 85 1014.1
20260906043040 72 59 1.7 7.8 0.00 0.00 0.00 84 1013.9
20260906041540 73 44 2.6 7.8 0.00 0.00 0.00 84 1013.7
20260906040042 73 59 3.5 8.7 0.00 0.00 0.00 83 1013.5
20260906034543 73 69 2.6 6.1 0.00 0.00 0.00 83 1013.5
20260906033039 73 92 2.6 10.4 0.00 0.00 0.00 83 1013.3
20260906031535 73 92 2.6 8.7 0.00 0.00 0.00 83 1013.4
20260906030038 73 146 5.2 10.4 0.00 0.00 0.00 83 1013.4
20260906024533 73 48 5.2 11.3 0.00 0.00 0.00 83 1013.3
20260906023031 73 77 4.3 9.6 0.00 0.00 0.00 83 1013.4
20260906021530 73 108 5.2 12.2 0.00 0.00 0.00 84 1013.4
20260906020032 73 75 5.2 11.3 0.00 0.00 0.00 83 1013.3
20260906014535 73 73 4.3 13.9 0.00 0.00 0.00 84 1013.3
20260906013029 73 53 7.0 13.9 0.00 0.00 0.00 83 1013.2
20260906011523 73 49 3.5 9.6 0.00 0.00 0.00 83 1013.2
20260906010020 73 53 4.3 12.2 0.00 0.00 0.00 82 1013.3
20260906004519 73 11 5.2 12.2 0.00 0.00 0.00 84 1013.2
20260906003016 73 37 4.3 9.6 0.00 0.00 0.00 83 1013.0
20260906001513 74 70 4.3 13.9 0.00 0.00 0.00 82 1012.8
20260906000009 75 78 7.0 15.6 0.00 0.00 0.00 79 1012.4
20260905234505 77 53 5.2 11.3 0.00 0.00 0.00 77 1012.3
20260905233012 79 360 6.1 12.2 0.00 0.00 0.00 75 1012.3
20260905231502 79 59 5.2 11.3 0.00 0.00 0.00 74 1012.1
20260905230002 81 41 6.1 13.0 0.00 0.00 0.00 71 1011.9
20260905224501 81 76 5.2 10.4 0.00 0.00 0.00 70 1011.7
20260905223100 83 72 3.5 10.4 0.00 0.00 0.00 66 1011.5
20260905221601 83 53 3.5 9.6 0.00 0.00 0.00 67 1011.4
20260905220059 84 103 3.5 12.2 0.00 0.00 0.00 67 1011.4
20260905214558 82 60 3.5 7.0 0.00 0.00 0.00 69 1011.7
20260905213057 82 94 5.2 8.7 0.00 0.00 0.00 71 1011.6
20260905211602 82 61 2.6 9.6 0.00 0.00 0.00 71 1011.6
20260905210058 81 39 4.3 9.6 0.00 0.00 0.00 74 1011.7
20260905204556 80 43 5.2 13.0 0.00 0.00 0.00 75 1011.9
20260905203100 80 37 5.2 12.2 0.00 0.00 0.00 74 1012.0
20260905201555 81 56 3.5 11.3 0.00 0.00 0.00 74 1011.9
20260905200104 82 63 2.6 11.3 0.00 0.00 0.00 73 1011.9
20260905194554 83 92 2.6 13.0 0.00 0.00 0.00 71 1011.8
20260905193108 83 47 5.2 15.6 0.00 0.00 0.00 70 1011.7
20260905191554 84 37 5.2 11.3 0.00 0.00 0.00 70 1011.8
20260905190052 84 44 4.3 11.3 0.00 0.00 0.00 70 1011.8
20260905184551 84 179 5.2 13.0 0.00 0.00 0.00 70 1011.8
20260905183055 84 89 3.5 10.4 0.00 0.00 0.00 70 1011.9
20260905181550 84 37 2.6 9.6 0.00 0.00 0.00 70 1011.9
20260905180050 84 111 4.3 8.7 0.00 0.00 0.00 70 1011.8
20260905174550 85 95 4.3 10.4 0.00 0.00 0.00 69 1011.8
20260905173048 85 50 4.3 8.7 0.00 0.00 0.00 70 1011.8
20260905171551 86 38 2.6 8.7 0.00 0.00 0.00 68 1011.8
20260905170045 85 66 2.6 8.7 0.00 0.00 0.00 70 1011.9
20260905164544 85 34 4.3 8.7 0.00 0.00 0.00 70 1012.0
20260905163041 84 23 1.7 7.8 0.00 0.00 0.00 72 1012.1
20260905161540 83 72 2.6 9.6 0.00 0.00 0.00 75 1012.1
20260905160039 83 33 2.6 6.1 0.00 0.00 0.00 73 1012.0
20260905154546 82 119 3.5 10.4 0.00 0.00 0.00 75 1012.0
20260905153036 82 63 1.7 7.0 0.00 0.00 0.00 76 1011.9
20260905151534 82 88 1.7 8.7 0.00 0.00 0.00 78 1011.8
20260905150036 80 37 4.3 13.0 0.00 0.00 0.00 80 1011.6
20260905144531 79 34 4.3 11.3 0.00 0.00 0.00 82 1011.4
20260905143030 78 65 4.3 7.8 0.00 0.00 0.00 84 1011.5
20260905141528 77 45 3.5 8.7 0.00 0.00 0.00 85 1011.5
20260905140027 79 61 3.5 8.7 0.00 0.00 0.00 83 1011.2
20260905134540 78 25 4.3 8.7 0.00 0.00 0.00 85 1011.2
20260905133026 78 17 4.3 8.7 0.00 0.00 0.00 85 1011.3
20260905131526 79 60 2.6 6.1 0.00 0.00 0.00 85 1011.5
20260905130022 78 56 0.9 7.0 0.00 0.00 0.00 86 1010.9
20260905124521 78 58 2.6 6.1 0.00 0.00 0.00 87 1010.6
20260905123016 78 44 0.0 7.0 0.00 0.00 0.00 89 1010.4
20260905121517 77 75 2.6 7.0 0.00 0.00 0.00 90 1010.5